| time (UTC) | temp F | wind direction | speed MPH | gust MPH | rain 1hr in | rain 24hr in | rain mn in | humidity % | barometer mb |
| 20260509222424 | 87 | 278 | 1.0 | 2.0 | 0.00 | 0.00 | 0.00 | 75 | 1007.9 |
| 20260509221920 | 89 | 227 | 2.0 | 2.0 | 0.00 | 0.00 | 0.00 | 72 | 1007.9 |
| 20260509221417 | 89 | 355 | 2.0 | 2.0 | 0.00 | 0.00 | 0.00 | 73 | 1008.0 |
| 20260509220913 | 87 | 46 | 1.0 | 2.0 | 0.00 | 0.00 | 0.00 | 78 | 1007.9 |
| 20260509220409 | 87 | 72 | 0.0 | 1.0 | 0.00 | 0.00 | 0.00 | 82 | 1008.0 |
| 20260509215905 | 88 | 48 | 1.0 | 2.0 | 0.00 | 0.00 | 0.00 | 75 | 1008.0 |
| 20260509215401 | 86 | 22 | 0.0 | 0.0 | 0.00 | 0.00 | 0.00 | 78 | 1007.6 |
| 20260509214858 | 86 | 45 | 1.0 | 1.0 | 0.00 | 0.00 | 0.00 | 84 | 1007.8 |
| 20260509214355 | 84 | 21 | 0.0 | 0.0 | 0.00 | 0.00 | 0.00 | 82 | 1007.7 |
| 20260509213852 | 85 | 20 | 0.0 | 0.0 | 0.00 | 0.00 | 0.00 | 83 | 1007.9 |
| 20260509213347 | 86 | 18 | 0.0 | 0.0 | 0.00 | 0.00 | 0.00 | 81 | 1007.9 |
| 20260509212846 | 86 | 18 | 0.0 | 0.0 | 0.00 | 0.00 | 0.00 | 80 | 1008.1 |
| 20260509212343 | 87 | 18 | 0.0 | 0.0 | 0.00 | 0.00 | 0.00 | 78 | 1008.0 |
| 20260509211839 | 87 | 17 | 0.0 | 0.0 | 0.00 | 0.00 | 0.00 | 78 | 1008.0 |
| 20260509211334 | 87 | 28 | 0.0 | 0.0 | 0.00 | 0.00 | 0.00 | 76 | 1008.1 |
| 20260509210831 | 89 | 33 | 2.0 | 2.0 | 0.00 | 0.00 | 0.00 | 74 | 1008.0 |
| 20260509210329 | 88 | 31 | 0.0 | 1.0 | 0.00 | 0.00 | 0.00 | 73 | 1008.1 |
| 20260509205828 | 88 | 215 | 1.0 | 1.0 | 0.00 | 0.00 | 0.00 | 71 | 1008.4 |
| 20260509205323 | 89 | 310 | 2.0 | 2.0 | 0.00 | 0.00 | 0.00 | 71 | 1008.1 |
| 20260509204820 | 87 | 356 | 0.0 | 0.0 | 0.00 | 0.00 | 0.00 | 73 | 1008.3 |
| 20260509204316 | 86 | 26 | 1.0 | 1.0 | 0.00 | 0.00 | 0.00 | 75 | 1008.4 |
| 20260509203813 | 87 | 260 | 2.0 | 2.0 | 0.00 | 0.00 | 0.00 | 73 | 1008.6 |
| 20260509203310 | 86 | 71 | 2.0 | 2.0 | 0.00 | 0.00 | 0.00 | 79 | 1008.7 |
| 20260509202806 | 86 | 53 | 1.0 | 1.0 | 0.00 | 0.00 | 0.00 | 77 | 1008.5 |
| 20260509202306 | 85 | 359 | 4.0 | 4.0 | 0.00 | 0.00 | 0.00 | 78 | 1008.6 |
| 20260509201801 | 85 | 13 | 0.0 | 0.0 | 0.00 | 0.00 | 0.00 | 75 | 1008.7 |
| 20260509201259 | 86 | 265 | 4.0 | 4.0 | 0.00 | 0.00 | 0.00 | 76 | 1008.7 |
| 20260509200755 | 86 | 215 | 1.0 | 1.0 | 0.00 | 0.00 | 0.00 | 75 | 1008.8 |
| 20260509200250 | 85 | 234 | 2.0 | 2.0 | 0.00 | 0.00 | 0.00 | 78 | 1009.0 |
| 20260509195746 | 85 | 296 | 4.0 | 6.0 | 0.00 | 0.00 | 0.00 | 77 | 1008.9 |
| 20260509195242 | 86 | 91 | 0.0 | 1.0 | 0.00 | 0.00 | 0.00 | 78 | 1008.9 |
| 20260509194736 | 85 | 344 | 0.0 | 0.0 | 0.00 | 0.00 | 0.00 | 78 | 1009.0 |
| 20260509194233 | 86 | 309 | 2.0 | 3.0 | 0.00 | 0.00 | 0.00 | 76 | 1009.1 |
| 20260509193730 | 86 | 40 | 1.0 | 1.0 | 0.00 | 0.00 | 0.00 | 79 | 1008.8 |
| 20260509193229 | 84 | 118 | 0.0 | 1.0 | 0.00 | 0.00 | 0.00 | 80 | 1009.2 |
| 20260509192726 | 84 | 292 | 1.0 | 1.0 | 0.00 | 0.00 | 0.00 | 79 | 1009.4 |
| 20260509192221 | 85 | 12 | 0.0 | 0.0 | 0.00 | 0.00 | 0.00 | 81 | 1009.5 |
| 20260509191716 | 84 | 64 | 0.0 | 0.0 | 0.00 | 0.00 | 0.00 | 84 | 1009.1 |
| 20260509191213 | 83 | 11 | 1.0 | 1.0 | 0.00 | 0.00 | 0.00 | 84 | 1009.4 |
| 20260509190709 | 83 | 42 | 1.0 | 1.0 | 0.00 | 0.00 | 0.00 | 85 | 1009.7 |
| 20260509190207 | 83 | 39 | 1.0 | 1.0 | 0.00 | 0.00 | 0.00 | 84 | 1009.4 |
| 20260509185704 | 84 | 54 | 2.0 | 2.0 | 0.00 | 0.00 | 0.00 | 83 | 1009.8 |
| 20260509185200 | 84 | 10 | 1.0 | 1.0 | 0.00 | 0.00 | 0.00 | 81 | 1009.7 |
| 20260509184658 | 83 | 250 | 2.0 | 2.0 | 0.00 | 0.00 | 0.00 | 82 | 1009.8 |
| 20260509184155 | 84 | 29 | 2.0 | 2.0 | 0.00 | 0.00 | 0.00 | 81 | 1009.5 |
| 20260509183651 | 84 | 61 | 2.0 | 2.0 | 0.00 | 0.00 | 0.00 | 84 | 1009.7 |
| 20260509183146 | 84 | 36 | 0.0 | 0.0 | 0.00 | 0.00 | 0.00 | 85 | 1009.7 |
| 20260509182642 | 84 | 59 | 1.0 | 1.0 | 0.00 | 0.00 | 0.00 | 87 | 1009.9 |
| 20260509182140 | 84 | 17 | 0.0 | 0.0 | 0.00 | 0.00 | 0.00 | 84 | 1009.8 |
| 20260509181638 | 83 | 26 | 0.0 | 0.0 | 0.00 | 0.00 | 0.00 | 86 | 1009.8 |
| 20260509181135 | 82 | 23 | 0.0 | 0.0 | 0.00 | 0.00 | 0.00 | 84 | 1010.0 |
| 20260509180631 | 82 | 345 | 0.0 | 1.0 | 0.00 | 0.00 | 0.00 | 85 | 1010.3 |
| 20260509180128 | 81 | 354 | 0.0 | 0.0 | 0.00 | 0.00 | 0.00 | 86 | 1010.2 |
| 20260509175624 | 81 | 15 | 0.0 | 0.0 | 0.00 | 0.00 | 0.00 | 90 | 1010.1 |
| 20260509175121 | 81 | 14 | 0.0 | 0.0 | 0.00 | 0.00 | 0.00 | 89 | 1010.4 |
| 20260509174617 | 80 | 15 | 0.0 | 0.0 | 0.00 | 0.00 | 0.00 | 91 | 1010.3 |
| 20260509174112 | 81 | 14 | 0.0 | 0.0 | 0.00 | 0.00 | 0.00 | 88 | 1010.5 |
| 20260509173608 | 81 | 15 | 0.0 | 1.0 | 0.00 | 0.00 | 0.00 | 86 | 1010.4 |
| 20260509173104 | 80 | 15 | 1.0 | 1.0 | 0.00 | 0.00 | 0.00 | 88 | 1010.2 |
| 20260509172601 | 82 | 10 | 0.0 | 0.0 | 0.00 | 0.00 | 0.00 | 89 | 1010.5 |
| 20260509172056 | 82 | 7 | 0.0 | 0.0 | 0.00 | 0.00 | 0.00 | 89 | 1010.3 |
| 20260509171552 | 82 | 7 | 0.0 | 0.0 | 0.00 | 0.00 | 0.00 | 85 | 1010.4 |
| 20260509171049 | 81 | 329 | 1.0 | 1.0 | 0.00 | 0.00 | 0.00 | 85 | 1010.5 |
| 20260509170545 | 81 | 350 | 1.0 | 1.0 | 0.00 | 0.00 | 0.00 | 85 | 1010.6 |
| 20260509170041 | 81 | 17 | 1.0 | 2.0 | 0.00 | 0.00 | 0.00 | 88 | 1010.5 |
| 20260509165540 | 81 | 353 | 0.0 | 1.0 | 0.00 | 0.00 | 0.00 | 87 | 1010.7 |
| 20260509165035 | 80 | 345 | 0.0 | 0.0 | 0.00 | 0.00 | 0.00 | 87 | 1010.6 |
| 20260509164532 | 78 | 32 | 0.0 | 1.0 | 0.00 | 0.00 | 0.00 | 94 | 1010.6 |
| 20260509164027 | 76 | 346 | 2.0 | 2.0 | 0.00 | 0.00 | 0.00 | 99 | 1010.9 |
| 20260509163526 | 76 | 327 | 1.0 | 1.0 | 0.00 | 0.00 | 0.00 | 99 | 1010.8 |
| 20260509163020 | 76 | 36 | 1.0 | 1.0 | 0.00 | 0.00 | 0.00 | 99 | 1010.8 |
| 20260509162518 | 76 | 35 | 0.0 | 1.0 | 0.00 | 0.00 | 0.00 | 99 | 1010.8 |
| 20260509162014 | 75 | 291 | 4.0 | 6.0 | 0.00 | 0.00 | 0.00 | 99 | 1010.7 |
| 20260509161510 | 76 | 355 | 0.0 | 0.0 | 0.00 | 0.00 | 0.00 | 99 | 1010.8 |
| 20260509161005 | 75 | 220 | 2.0 | 3.0 | 0.00 | 0.00 | 0.00 | 99 | 1011.1 |
| 20260509160501 | 75 | 226 | 2.0 | 2.0 | 0.00 | 0.00 | 0.00 | 99 | 1011.0 |
| 20260509155956 | 75 | 304 | 2.0 | 2.0 | 0.00 | 0.00 | 0.00 | 99 | 1011.1 |
| 20260509155453 | 76 | 337 | 0.0 | 0.0 | 0.00 | 0.00 | 0.00 | 99 | 1011.0 |
| 20260509154949 | 77 | 85 | 1.0 | 1.0 | 0.00 | 0.00 | 0.00 | 99 | 1011.0 |
| 20260509154445 | 75 | 9 | 1.0 | 1.0 | 0.00 | 0.00 | 0.00 | 99 | 1010.9 |
| 20260509153943 | 75 | 291 | 2.0 | 3.0 | 0.00 | 0.00 | 0.00 | 99 | 1011.1 |
| 20260509153440 | 75 | 28 | 0.0 | 1.0 | 0.00 | 0.00 | 0.00 | 99 | 1011.0 |
| 20260509152937 | 74 | 320 | 0.0 | 1.0 | 0.00 | 0.00 | 0.00 | 99 | 1011.2 |
| 20260509152433 | 75 | 34 | 0.0 | 0.0 | 0.00 | 0.00 | 0.00 | 99 | 1010.8 |
| 20260509151930 | 76 | 43 | 1.0 | 1.0 | 0.00 | 0.00 | 0.00 | 99 | 1011.0 |
| 20260509151426 | 75 | 26 | 0.0 | 0.0 | 0.00 | 0.00 | 0.00 | 99 | 1010.7 |
| 20260509150924 | 75 | 292 | 1.0 | 1.0 | 0.00 | 0.00 | 0.00 | 99 | 1010.8 |
| 20260509150421 | 75 | 261 | 3.0 | 3.0 | 0.00 | 0.00 | 0.00 | 99 | 1010.3 |
| 20260509145920 | 75 | 343 | 2.0 | 2.0 | 0.00 | 0.00 | 0.00 | 99 | 1010.4 |
| 20260509145420 | 75 | 247 | 2.0 | 2.0 | 0.00 | 0.00 | 0.00 | 99 | 1010.1 |
| 20260509144915 | 75 | 27 | 0.0 | 0.0 | 0.00 | 0.00 | 0.00 | 99 | 1010.0 |
| 20260509144412 | 75 | 30 | 0.0 | 0.0 | 0.00 | 0.00 | 0.00 | 99 | 1010.0 |
| 20260509143909 | 75 | 41 | 0.0 | 0.0 | 0.00 | 0.00 | 0.00 | 99 | 1009.9 |
| 20260509143407 | 74 | 13 | 0.0 | 0.0 | 0.00 | 0.00 | 0.00 | 99 | 1009.9 |
| 20260509142903 | 74 | 296 | 2.0 | 3.0 | 0.00 | 0.00 | 0.00 | 99 | 1009.9 |
| 20260509142359 | 74 | 357 | 0.0 | 0.0 | 0.00 | 0.00 | 0.00 | 99 | 1009.9 |
| 20260509141855 | 74 | 347 | 0.0 | 0.0 | 0.00 | 0.00 | 0.00 | 99 | 1010.1 |
| 20260509141352 | 74 | 12 | 0.0 | 0.0 | 0.00 | 0.00 | 0.00 | 99 | 1010.1 |
| 20260509140849 | 74 | 18 | 1.0 | 1.0 | 0.00 | 0.00 | 0.00 | 99 | 1010.0 |
| 20260509140345 | 74 | 2 | 0.0 | 0.0 | 0.00 | 0.00 | 0.00 | 99 | 1010.0 |
| 20260509135844 | 74 | 7 | 0.0 | 0.0 | 0.00 | 0.00 | 0.00 | 99 | 1010.3 |
| 20260509135341 | 74 | 7 | 0.0 | 0.0 | 0.00 | 0.00 | 0.00 | 99 | 1010.3 |
| 20260509134838 | 74 | 4 | 0.0 | 0.0 | 0.00 | 0.00 | 0.00 | 99 | 1010.6 |
| 20260509134335 | 73 | 334 | 0.0 | 0.0 | 0.00 | 0.00 | 0.00 | 99 | 1010.6 |
| 20260509133832 | 73 | 354 | 0.0 | 0.0 | 0.00 | 0.00 | 0.00 | 99 | 1010.6 |
| 20260509133328 | 73 | 7 | 0.0 | 0.0 | 0.00 | 0.00 | 0.00 | 99 | 1010.7 |
| 20260509132828 | 73 | 7 | 0.0 | 0.0 | 0.00 | 0.00 | 0.00 | 99 | 1010.9 |
| 20260509132326 | 73 | 7 | 0.0 | 0.0 | 0.00 | 0.00 | 0.00 | 99 | 1010.6 |
| 20260509131822 | 73 | 332 | 0.0 | 0.0 | 0.00 | 0.00 | 0.00 | 99 | 1010.4 |
| 20260509131319 | 73 | 0 | 0.0 | 0.0 | 0.00 | 0.00 | 0.00 | 99 | 1010.8 |
| 20260509130815 | 73 | 357 | 0.0 | 0.0 | 0.00 | 0.00 | 0.00 | 99 | 1010.5 |
| 20260509130311 | 73 | 359 | 0.0 | 0.0 | 0.00 | 0.00 | 0.00 | 99 | 1011.0 |
| 20260509125808 | 73 | 358 | 0.0 | 0.0 | 0.00 | 0.00 | 0.00 | 99 | 1010.7 |
| 20260509125307 | 73 | 345 | 1.0 | 1.0 | 0.00 | 0.00 | 0.00 | 99 | 1010.5 |
| 20260509124801 | 73 | 9 | 0.0 | 0.0 | 0.00 | 0.00 | 0.00 | 99 | 1010.7 |
| 20260509124257 | 73 | 9 | 0.0 | 0.0 | 0.00 | 0.00 | 0.00 | 99 | 1010.6 |
| 20260509123756 | 72 | 9 | 0.0 | 0.0 | 0.00 | 0.00 | 0.00 | 99 | 1010.6 |
| 20260509123253 | 72 | 9 | 0.0 | 0.0 | 0.00 | 0.00 | 0.00 | 99 | 1010.7 |
| 20260509122748 | 72 | 9 | 0.0 | 0.0 | 0.00 | 0.00 | 0.00 | 99 | 1010.5 |
| 20260509122246 | 72 | 9 | 0.0 | 0.0 | 0.00 | 0.00 | 0.00 | 99 | 1010.9 |
| 20260509121742 | 72 | 9 | 0.0 | 0.0 | 0.00 | 0.00 | 0.00 | 99 | 1010.7 |
| 20260509121239 | 72 | 9 | 0.0 | 0.0 | 0.00 | 0.00 | 0.00 | 99 | 1010.9 |
| 20260509120738 | 72 | 9 | 0.0 | 0.0 | 0.00 | 0.00 | 0.00 | 99 | 1010.9 |
| 20260509120235 | 72 | 9 | 0.0 | 0.0 | 0.00 | 0.00 | 0.00 | 99 | 1010.5 |
| 20260509115733 | 72 | 9 | 0.0 | 0.0 | 0.00 | 0.00 | 0.00 | 99 | 1010.5 |
| 20260509115230 | 72 | 9 | 0.0 | 0.0 | 0.00 | 0.00 | 0.00 | 99 | 1010.4 |
| 20260509114728 | 72 | 9 | 0.0 | 0.0 | 0.00 | 0.00 | 0.00 | 99 | 1010.2 |
| 20260509114226 | 72 | 9 | 0.0 | 0.0 | 0.00 | 0.00 | 0.00 | 99 | 1010.3 |
| 20260509113725 | 72 | 9 | 0.0 | 0.0 | 0.00 | 0.00 | 0.00 | 99 | 1010.2 |
| 20260509113222 | 71 | 9 | 0.0 | 0.0 | 0.00 | 0.00 | 0.00 | 99 | 1010.3 |
| 20260509112718 | 72 | 10 | 0.0 | 0.0 | 0.00 | 0.00 | 0.00 | 99 | 1010.1 |
| 20260509112210 | 72 | 9 | 0.0 | 0.0 | 0.00 | 0.00 | 0.00 | 99 | 1009.9 |
| 20260509111707 | 72 | 9 | 0.0 | 0.0 | 0.00 | 0.00 | 0.00 | 99 | 1009.5 |
| 20260509111204 | 72 | 9 | 0.0 | 0.0 | 0.00 | 0.00 | 0.00 | 99 | 1009.7 |
| 20260509110701 | 72 | 9 | 0.0 | 0.0 | 0.00 | 0.00 | 0.00 | 99 | 1009.8 |
| 20260509110157 | 72 | 9 | 0.0 | 0.0 | 0.00 | 0.00 | 0.00 | 99 | 1009.6 |
| 20260509105656 | 72 | 9 | 0.0 | 0.0 | 0.00 | 0.00 | 0.00 | 99 | 1009.6 |
| 20260509105153 | 71 | 9 | 0.0 | 0.0 | 0.00 | 0.00 | 0.00 | 99 | 1009.6 |
| 20260509104650 | 71 | 13 | 0.0 | 0.0 | 0.00 | 0.00 | 0.00 | 99 | 1009.5 |
| 20260509104147 | 72 | 5 | 0.0 | 0.0 | 0.00 | 0.00 | 0.00 | 99 | 1009.6 |
| 20260509103645 | 72 | 5 | 0.0 | 0.0 | 0.00 | 0.00 | 0.00 | 99 | 1009.9 |
| 20260509103142 | 72 | 359 | 0.0 | 0.0 | 0.00 | 0.00 | 0.00 | 99 | 1009.9 |
| 20260509102640 | 72 | 357 | 0.0 | 0.0 | 0.00 | 0.00 | 0.00 | 99 | 1009.8 |
| 20260509102137 | 72 | 348 | 0.0 | 0.0 | 0.00 | 0.00 | 0.00 | 99 | 1010.0 |
| 20260509101633 | 72 | 325 | 0.0 | 0.0 | 0.00 | 0.00 | 0.00 | 99 | 1010.0 |
| 20260509101130 | 72 | 358 | 1.0 | 1.0 | 0.00 | 0.00 | 0.00 | 99 | 1010.1 |
| 20260509100627 | 72 | 357 | 0.0 | 0.0 | 0.00 | 0.00 | 0.00 | 99 | 1009.9 |
| 20260509100124 | 72 | 344 | 0.0 | 1.0 | 0.00 | 0.00 | 0.00 | 99 | 1009.9 |
| 20260509095621 | 72 | 354 | 1.0 | 1.0 | 0.00 | 0.00 | 0.00 | 99 | 1009.7 |
| 20260509095118 | 72 | 346 | 0.0 | 0.0 | 0.00 | 0.00 | 0.00 | 99 | 1009.9 |
| 20260509094614 | 71 | 353 | 0.0 | 0.0 | 0.00 | 0.00 | 0.00 | 99 | 1009.4 |
| 20260509094111 | 71 | 354 | 0.0 | 0.0 | 0.00 | 0.00 | 0.00 | 99 | 1009.3 |
| 20260509093610 | 71 | 354 | 0.0 | 0.0 | 0.00 | 0.00 | 0.00 | 99 | 1009.3 |
| 20260509093106 | 71 | 354 | 0.0 | 0.0 | 0.00 | 0.00 | 0.00 | 99 | 1009.6 |
| 20260509092604 | 71 | 354 | 0.0 | 0.0 | 0.00 | 0.00 | 0.00 | 99 | 1009.5 |
| 20260509092103 | 71 | 354 | 0.0 | 0.0 | 0.00 | 0.00 | 0.00 | 99 | 1009.6 |
| 20260509091600 | 72 | 354 | 0.0 | 0.0 | 0.00 | 0.00 | 0.00 | 99 | 1009.7 |
| 20260509091056 | 72 | 353 | 0.0 | 0.0 | 0.00 | 0.00 | 0.00 | 99 | 1009.5 |
| 20260509090554 | 72 | 353 | 0.0 | 0.0 | 0.00 | 0.00 | 0.00 | 99 | 1009.8 |
| 20260509090052 | 72 | 353 | 0.0 | 0.0 | 0.00 | 0.00 | 0.00 | 99 | 1009.8 |
| 20260509085548 | 72 | 354 | 0.0 | 0.0 | 0.00 | 0.00 | 0.00 | 99 | 1009.7 |
| 20260509085044 | 72 | 354 | 0.0 | 0.0 | 0.00 | 0.00 | 0.00 | 99 | 1009.6 |
| 20260509084542 | 72 | 355 | 0.0 | 0.0 | 0.00 | 0.00 | 0.00 | 99 | 1009.6 |
| 20260509084039 | 71 | 359 | 0.0 | 0.0 | 0.00 | 0.00 | 0.00 | 99 | 1009.6 |
| 20260509083536 | 71 | 359 | 0.0 | 0.0 | 0.00 | 0.00 | 0.00 | 99 | 1009.6 |
| 20260509083032 | 71 | 358 | 0.0 | 0.0 | 0.00 | 0.00 | 0.00 | 99 | 1010.0 |
| 20260509082530 | 71 | 3 | 0.0 | 0.0 | 0.00 | 0.00 | 0.00 | 99 | 1009.7 |
| 20260509082027 | 71 | 3 | 0.0 | 0.0 | 0.00 | 0.00 | 0.00 | 99 | 1009.9 |
| 20260509081524 | 71 | 2 | 0.0 | 0.0 | 0.00 | 0.00 | 0.00 | 99 | 1009.9 |
| 20260509081021 | 71 | 2 | 0.0 | 0.0 | 0.00 | 0.00 | 0.00 | 99 | 1010.0 |
| 20260509080519 | 71 | 2 | 0.0 | 0.0 | 0.00 | 0.00 | 0.00 | 99 | 1009.8 |
| 20260509080017 | 71 | 11 | 0.0 | 0.0 | 0.00 | 0.00 | 0.00 | 99 | 1009.9 |
| 20260509075514 | 71 | 10 | 0.0 | 0.0 | 0.00 | 0.00 | 0.00 | 99 | 1009.9 |
| 20260509075012 | 71 | 8 | 0.0 | 0.0 | 0.00 | 0.00 | 0.00 | 99 | 1010.0 |
| 20260509074509 | 71 | 13 | 0.0 | 0.0 | 0.00 | 0.00 | 0.00 | 99 | 1010.0 |
| 20260509074005 | 71 | 13 | 0.0 | 0.0 | 0.00 | 0.00 | 0.00 | 99 | 1010.1 |
| 20260509073502 | 71 | 13 | 0.0 | 0.0 | 0.00 | 0.00 | 0.00 | 99 | 1010.2 |
| 20260509072958 | 71 | 13 | 0.0 | 0.0 | 0.00 | 0.00 | 0.00 | 99 | 1010.0 |
| 20260509072455 | 71 | 13 | 0.0 | 0.0 | 0.00 | 0.00 | 0.00 | 99 | 1010.1 |
| 20260509071952 | 71 | 13 | 0.0 | 0.0 | 0.00 | 0.00 | 0.00 | 99 | 1010.3 |
| 20260509071448 | 71 | 13 | 0.0 | 0.0 | 0.00 | 0.00 | 0.00 | 99 | 1010.4 |
| 20260509070946 | 71 | 13 | 0.0 | 0.0 | 0.00 | 0.00 | 0.00 | 99 | 1010.3 |
| 20260509070443 | 71 | 13 | 0.0 | 0.0 | 0.00 | 0.00 | 0.00 | 99 | 1010.2 |
| 20260509065938 | 71 | 13 | 0.0 | 0.0 | 0.00 | 0.00 | 0.00 | 99 | 1010.4 |
| 20260509065434 | 71 | 12 | 0.0 | 0.0 | 0.00 | 0.00 | 0.00 | 99 | 1010.5 |
| 20260509064931 | 71 | 12 | 0.0 | 0.0 | 0.00 | 0.00 | 0.00 | 99 | 1010.3 |
| 20260509064429 | 71 | 12 | 0.0 | 0.0 | 0.00 | 0.00 | 0.00 | 99 | 1010.3 |
| 20260509063927 | 71 | 5 | 0.0 | 0.0 | 0.00 | 0.00 | 0.00 | 99 | 1010.2 |
| 20260509063422 | 71 | 5 | 0.0 | 0.0 | 0.00 | 0.00 | 0.00 | 99 | 1010.1 |
| 20260509062919 | 71 | 5 | 0.0 | 0.0 | 0.00 | 0.00 | 0.00 | 99 | 1010.4 |
| 20260509062416 | 71 | 5 | 0.0 | 0.0 | 0.00 | 0.00 | 0.00 | 99 | 1010.1 |
| 20260509061914 | 71 | 3 | 0.0 | 0.0 | 0.00 | 0.00 | 0.00 | 99 | 1010.5 |
| 20260509061412 | 71 | 3 | 0.0 | 0.0 | 0.00 | 0.00 | 0.00 | 99 | 1010.4 |
| 20260509060908 | 71 | 5 | 0.0 | 0.0 | 0.00 | 0.00 | 0.00 | 99 | 1010.2 |
| 20260509060405 | 71 | 5 | 0.0 | 0.0 | 0.00 | 0.00 | 0.00 | 99 | 1010.6 |
| 20260509055900 | 71 | 5 | 0.0 | 0.0 | 0.00 | 0.00 | 0.00 | 99 | 1010.6 |
| 20260509055356 | 71 | 3 | 0.0 | 0.0 | 0.00 | 0.00 | 0.00 | 99 | 1010.4 |
| 20260509054853 | 71 | 38 | 0.0 | 0.0 | 0.00 | 0.00 | 0.00 | 99 | 1010.6 |
| 20260509054350 | 71 | 1 | 0.0 | 0.0 | 0.00 | 0.00 | 0.00 | 99 | 1010.7 |
| 20260509053848 | 71 | 346 | 0.0 | 0.0 | 0.00 | 0.00 | 0.00 | 99 | 1010.6 |
| 20260509053345 | 71 | 23 | 0.0 | 0.0 | 0.00 | 0.00 | 0.00 | 99 | 1010.5 |
| 20260509052843 | 71 | 26 | 0.0 | 0.0 | 0.00 | 0.00 | 0.00 | 99 | 1010.4 |
| 20260509052340 | 71 | 10 | 1.0 | 1.0 | 0.00 | 0.00 | 0.00 | 99 | 1010.4 |
| 20260509051838 | 71 | 25 | 0.0 | 0.0 | 0.00 | 0.00 | 0.00 | 99 | 1010.5 |
| 20260509051336 | 70 | 36 | 0.0 | 0.0 | 0.00 | 0.00 | 0.00 | 99 | 1010.5 |
| 20260509050832 | 71 | 36 | 0.0 | 0.0 | 0.00 | 0.00 | 0.00 | 99 | 1010.6 |
| 20260509050329 | 70 | 32 | 0.0 | 0.0 | 0.00 | 0.00 | 0.00 | 99 | 1010.7 |
| 20260509045826 | 70 | 16 | 0.0 | 0.0 | 0.00 | 0.90 | 0.90 | 99 | 1010.8 |
| 20260509045323 | 70 | 36 | 0.0 | 0.0 | 0.00 | 0.90 | 0.90 | 99 | 1010.7 |
| 20260509044820 | 70 | 35 | 0.0 | 0.0 | 0.00 | 0.90 | 0.90 | 99 | 1010.6 |
| 20260509044318 | 70 | 31 | 0.0 | 0.0 | 0.00 | 0.90 | 0.90 | 99 | 1010.7 |
| 20260509043814 | 70 | 14 | 0.0 | 0.0 | 0.00 | 0.90 | 0.90 | 99 | 1010.9 |
| 20260509043310 | 70 | 45 | 0.0 | 1.0 | 0.00 | 0.90 | 0.90 | 99 | 1010.8 |
| 20260509042806 | 70 | 33 | 0.0 | 0.0 | 0.00 | 0.90 | 0.90 | 99 | 1010.5 |
| 20260509042306 | 70 | 28 | 0.0 | 0.0 | 0.00 | 0.90 | 0.90 | 99 | 1010.7 |
| 20260509041759 | 70 | 31 | 0.0 | 0.0 | 0.00 | 0.90 | 0.90 | 99 | 1010.8 |
| 20260509041256 | 70 | 32 | 0.0 | 0.0 | 0.00 | 0.90 | 0.90 | 99 | 1010.4 |
| 20260509040755 | 70 | 25 | 0.0 | 0.0 | 0.00 | 0.90 | 0.90 | 99 | 1010.6 |
| 20260509040252 | 70 | 22 | 0.0 | 0.0 | 0.00 | 0.90 | 0.90 | 99 | 1010.8 |
| 20260509035749 | 70 | 14 | 0.0 | 0.0 | 0.00 | 0.90 | 0.90 | 99 | 1010.6 |
| 20260509035246 | 70 | 19 | 0.0 | 0.0 | 0.00 | 0.90 | 0.90 | 99 | 1010.6 |
| 20260509034742 | 70 | 32 | 0.0 | 0.0 | 0.00 | 0.90 | 0.90 | 99 | 1010.5 |
| 20260509034240 | 70 | 13 | 0.0 | 0.0 | 0.00 | 0.90 | 0.90 | 99 | 1010.6 |
| 20260509033737 | 70 | 349 | 0.0 | 0.0 | 0.00 | 0.90 | 0.90 | 99 | 1010.4 |
| 20260509033234 | 70 | 51 | 0.0 | 0.0 | 0.00 | 0.90 | 0.90 | 99 | 1010.4 |
| 20260509032731 | 70 | 29 | 0.0 | 0.0 | 0.00 | 0.90 | 0.90 | 99 | 1010.4 |
| 20260509032228 | 70 | 0 | 0.0 | 0.0 | 0.00 | 0.90 | 0.90 | 99 | 1010.5 |
| 20260509031725 | 70 | 35 | 0.0 | 0.0 | 0.00 | 0.90 | 0.90 | 99 | 1010.1 |
| 20260509031222 | 70 | 79 | 0.0 | 1.0 | 0.00 | 0.90 | 0.90 | 99 | 1010.4 |
| 20260509030720 | 70 | 328 | 1.0 | 1.0 | 0.00 | 0.90 | 0.90 | 99 | 1010.2 |
| 20260509030218 | 70 | 337 | 1.0 | 1.0 | 0.00 | 0.90 | 0.90 | 99 | 1010.3 |
| 20260509025714 | 70 | 24 | 1.0 | 1.0 | 0.00 | 0.90 | 0.90 | 99 | 1010.3 |
| 20260509025210 | 70 | 40 | 0.0 | 0.0 | 0.00 | 0.90 | 0.90 | 99 | 1010.0 |
| 20260509024705 | 70 | 355 | 1.0 | 1.0 | 0.00 | 0.90 | 0.90 | 99 | 1010.1 |
| 20260509024201 | 70 | 5 | 0.0 | 0.0 | 0.00 | 0.90 | 0.90 | 99 | 1010.1 |
| 20260509023659 | 70 | 349 | 1.0 | 1.0 | 0.00 | 0.90 | 0.90 | 99 | 1010.1 |
| 20260509023156 | 70 | 5 | 0.0 | 0.0 | 0.00 | 0.90 | 0.90 | 99 | 1010.2 |
| 20260509022646 | 70 | 11 | 0.0 | 0.0 | 0.00 | 0.90 | 0.90 | 99 | 1010.0 |
| 20260509022144 | 70 | 12 | 0.0 | 1.0 | 0.00 | 0.90 | 0.90 | 99 | 1009.9 |
| 20260509021641 | 70 | 30 | 0.0 | 0.0 | 0.00 | 0.90 | 0.90 | 99 | 1010.3 |
| 20260509021138 | 70 | 16 | 0.0 | 0.0 | 0.00 | 0.90 | 0.90 | 99 | 1010.1 |
| 20260509020637 | 70 | 29 | 0.0 | 0.0 | 0.00 | 0.90 | 0.90 | 99 | 1010.0 |
| 20260509020133 | 70 | 16 | 0.0 | 0.0 | 0.00 | 0.90 | 0.90 | 99 | 1010.2 |
| 20260509015632 | 70 | 11 | 0.0 | 0.0 | 0.00 | 0.90 | 0.90 | 99 | 1010.1 |
| 20260509015129 | 70 | 11 | 0.0 | 0.0 | 0.00 | 0.90 | 0.90 | 99 | 1010.0 |
| 20260509014625 | 70 | 11 | 0.0 | 0.0 | 0.00 | 0.90 | 0.90 | 99 | 1010.2 |
| 20260509014122 | 70 | 9 | 0.0 | 0.0 | 0.00 | 0.90 | 0.90 | 99 | 1010.1 |
| 20260509013619 | 70 | 18 | 0.0 | 0.0 | 0.00 | 0.90 | 0.90 | 99 | 1010.0 |
| 20260509013114 | 70 | 23 | 1.0 | 1.0 | 0.00 | 0.90 | 0.90 | 99 | 1010.0 |
| 20260509012612 | 70 | 5 | 1.0 | 1.0 | 0.07 | 0.90 | 0.90 | 99 | 1009.9 |
| 20260509012108 | 70 | 35 | 0.0 | 0.0 | 0.26 | 0.90 | 0.90 | 99 | 1009.9 |
| 20260509011606 | 70 | 353 | 0.0 | 1.0 | 1.21 | 0.89 | 0.89 | 99 | 1009.8 |
| 20260509011103 | 70 | 2 | 0.0 | 1.0 | 2.69 | 0.87 | 0.87 | 99 | 1009.7 |
| 20260509010601 | 70 | 15 | 1.0 | 1.0 | 2.81 | 0.71 | 0.71 | 99 | 1010.0 |
| 20260509010057 | 70 | 55 | 1.0 | 1.0 | 1.13 | 0.41 | 0.41 | 99 | 1009.9 |
| 20260509005555 | 70 | 22 | 0.0 | 0.0 | 0.12 | 0.23 | 0.23 | 99 | 1009.8 |
| 20260509005050 | 70 | 23 | 0.0 | 0.0 | 0.07 | 0.22 | 0.22 | 99 | 1009.5 |
| 20260509004547 | 70 | 38 | 0.0 | 0.0 | 0.00 | 0.21 | 0.21 | 99 | 1009.7 |
| 20260509004044 | 71 | 54 | 1.0 | 1.0 | 0.00 | 0.21 | 0.21 | 99 | 1009.7 |
| 20260509003542 | 71 | 25 | 0.0 | 1.0 | 0.00 | 0.21 | 0.21 | 99 | 1010.0 |
| 20260509003039 | 71 | 359 | 0.0 | 0.0 | 0.05 | 0.21 | 0.21 | 99 | 1010.1 |
| 20260509002537 | 71 | 58 | 1.0 | 1.0 | 0.24 | 0.21 | 0.21 | 99 | 1009.9 |
| 20260509002034 | 71 | 359 | 1.0 | 2.0 | 0.42 | 0.20 | 0.20 | 99 | 1009.9 |
| 20260509001531 | 71 | 20 | 0.0 | 1.0 | 0.38 | 0.18 | 0.18 | 99 | 1010.0 |
| 20260509001027 | 71 | 30 | 0.0 | 0.0 | 0.54 | 0.14 | 0.14 | 99 | 1010.2 |
| 20260509000526 | 71 | 59 | 1.0 | 1.0 | 0.71 | 0.12 | 0.12 | 99 | 1010.8 |
| 20260509000021 | 72 | 357 | 1.0 | 1.0 | 0.24 | 0.04 | 0.04 | 97 | 1010.6 |
| 20260508235520 | 72 | 319 | 2.0 | 3.0 | 0.00 | 0.00 | 0.00 | 97 | 1010.0 |
| 20260508235015 | 72 | 26 | 0.0 | 0.0 | 0.00 | 0.00 | 0.00 | 98 | 1009.8 |
| 20260508234513 | 72 | 40 | 0.0 | 0.0 | 0.00 | 0.00 | 0.00 | 98 | 1009.9 |
| 20260508234010 | 72 | 24 | 0.0 | 0.0 | 0.00 | 0.00 | 0.00 | 98 | 1009.8 |
| 20260508233509 | 72 | 29 | 0.0 | 0.0 | 0.00 | 0.00 | 0.00 | 97 | 1009.6 |
| 20260508233006 | 72 | 29 | 0.0 | 0.0 | 0.00 | 0.00 | 0.00 | 97 | 1009.9 |
| 20260508232503 | 73 | 47 | 0.0 | 1.0 | 0.00 | 0.00 | 0.00 | 97 | 1010.0 |
| 20260508232000 | 73 | 67 | 0.0 | 1.0 | 0.00 | 0.00 | 0.00 | 97 | 1009.9 |
| 20260508231457 | 73 | 51 | 0.0 | 0.0 | 0.00 | 0.00 | 0.00 | 97 | 1009.8 |
| 20260508230954 | 73 | 55 | 1.0 | 1.0 | 0.00 | 0.00 | 0.00 | 97 | 1009.8 |
| 20260508230451 | 73 | 33 | 0.0 | 0.0 | 0.00 | 0.00 | 0.00 | 97 | 1010.1 |
| 20260508225948 | 73 | 58 | 1.0 | 1.0 | 0.00 | 0.00 | 0.00 | 97 | 1010.1 |
| 20260508225444 | 74 | 42 | 1.0 | 1.0 | 0.00 | 0.00 | 0.00 | 96 | 1009.8 |
| 20260508224942 | 74 | 26 | 0.0 | 0.0 | 0.00 | 0.00 | 0.00 | 95 | 1009.8 |
| 20260508224439 | 74 | 329 | 1.0 | 1.0 | 0.00 | 0.00 | 0.00 | 93 | 1009.9 |
| 20260508223936 | 74 | 23 | 0.0 | 1.0 | 0.00 | 0.00 | 0.00 | 93 | 1010.0 |
| 20260508223434 | 74 | 33 | 0.0 | 0.0 | 0.00 | 0.00 | 0.00 | 92 | 1010.3 |
| 20260508222931 | 74 | 28 | 0.0 | 0.0 | 0.00 | 0.00 | 0.00 | 91 | 1010.3 |